Time,TemperatureF,DewpointF,PressureIn,WindDirection,WindDirectionDegrees,WindSpeedMPH,WindSpeedGustMPH,Humidity,HourlyPrecipIn,Conditions,Clouds,dailyrainin,SoftwareType,DateUTC
2013-02-02 00:00:00,20.2,12.0,30.43,South,169,0.0,0.0,70,0.00,,CLR,0.00,VWS V14.01,2013-02-02 05:00:00,
2013-02-02 00:05:00,20.6,12.4,30.42,South,169,0.0,0.0,70,0.00,,CLR,0.00,VWS V14.01,2013-02-02 05:05:00,
2013-02-02 00:10:00,20.8,12.9,30.42,SSE,166,0.0,0.0,71,0.00,,CLR,0.00,VWS V14.01,2013-02-02 05:10:00,
2013-02-02 00:15:00,21.0,13.4,30.42,SSE,166,0.0,0.0,72,0.00,,CLR,0.00,VWS V14.01,2013-02-02 05:15:00,
2013-02-02 00:20:00,21.0,13.4,30.42,SSE,166,0.0,0.0,72,0.00,,CLR,0.00,VWS V14.01,2013-02-02 05:20:00,
2013-02-02 00:25:00,21.1,13.8,30.42,SSE,166,0.0,0.0,73,0.00,,CLR,0.00,VWS V14.01,2013-02-02 05:25:00,
2013-02-02 00:30:00,21.1,13.8,30.42,SSE,167,0.0,0.0,73,0.00,,CLR,0.00,VWS V14.01,2013-02-02 05:30:00,
2013-02-02 00:35:00,21.1,13.5,30.42,SSE,166,0.0,0.0,72,0.00,,CLR,0.00,VWS V14.01,2013-02-02 05:35:00,
2013-02-02 00:40:00,21.1,13.2,30.42,SSE,167,0.0,0.0,71,0.00,,CLR,0.00,VWS V14.01,2013-02-02 05:40:00,
2013-02-02 00:45:00,21.0,13.4,30.42,SSE,166,0.0,0.0,72,0.00,,CLR,0.00,VWS V14.01,2013-02-02 05:45:00,
2013-02-02 00:50:00,20.9,12.7,30.42,SSE,166,0.0,0.0,70,0.00,,CLR,0.00,VWS V14.01,2013-02-02 05:50:00,
2013-02-02 00:55:00,20.8,12.9,30.42,SSE,166,0.0,0.0,71,0.00,,CLR,0.00,VWS V14.01,2013-02-02 05:55:00,
2013-02-02 01:00:00,20.7,13.1,30.41,SSE,166,0.0,0.0,72,0.00,,CLR,0.00,VWS V14.01,2013-02-02 06:00:00,
2013-02-02 01:05:00,20.6,13.0,30.42,SSE,166,0.0,0.0,72,0.00,,CLR,0.00,VWS V14.01,2013-02-02 06:05:00,
2013-02-02 01:10:00,20.4,13.1,30.42,SSE,166,0.0,0.0,73,0.00,,CLR,0.00,VWS V14.01,2013-02-02 06:10:00,
2013-02-02 01:15:00,20.2,12.9,30.42,SSE,166,0.0,0.0,73,0.00,,CLR,0.00,VWS V14.01,2013-02-02 06:15:00,
2013-02-02 01:20:00,20.0,12.8,30.42,SSE,165,0.0,0.0,73,0.00,,CLR,0.00,VWS V14.01,2013-02-02 06:20:00,
2013-02-02 01:25:00,20.0,13.1,30.42,SSE,166,0.0,0.0,74,0.00,,CLR,0.00,VWS V14.01,2013-02-02 06:25:00,
2013-02-02 01:30:00,20.0,13.1,30.41,SSE,166,0.0,0.0,74,0.00,,CLR,0.00,VWS V14.01,2013-02-02 06:30:00,
2013-02-02 01:35:00,20.0,13.1,30.41,SSE,166,0.0,0.0,74,0.00,,CLR,0.00,VWS V14.01,2013-02-02 06:35:00,
2013-02-02 01:40:00,20.0,13.4,30.41,SSE,166,0.0,0.0,75,0.00,,CLR,0.00,VWS V14.01,2013-02-02 06:40:00,
2013-02-02 01:45:00,19.9,13.3,30.41,SSE,166,0.0,0.0,75,0.00,,CLR,0.00,VWS V14.01,2013-02-02 06:45:00,
2013-02-02 01:50:00,19.8,13.5,30.41,SSE,166,0.0,0.0,76,0.00,,CLR,0.00,VWS V14.01,2013-02-02 06:50:00,
2013-02-02 01:55:00,19.8,13.5,30.42,SSE,166,0.0,0.0,76,0.00,,CLR,0.00,VWS V14.01,2013-02-02 06:55:00,
2013-02-02 02:00:00,19.8,13.5,30.42,SSE,166,0.0,0.0,76,0.00,,CLR,0.00,VWS V14.01,2013-02-02 07:00:00,
2013-02-02 02:05:00,19.9,13.9,30.42,SSE,166,0.0,0.0,77,0.00,,CLR,0.00,VWS V14.01,2013-02-02 07:05:00,
2013-02-02 02:10:00,20.1,14.1,30.42,SSE,167,0.0,0.0,77,0.00,,CLR,0.00,VWS V14.01,2013-02-02 07:10:00,
2013-02-02 02:15:00,20.2,14.2,30.42,SSE,166,0.0,0.0,77,0.00,,CLR,0.00,VWS V14.01,2013-02-02 07:15:00,
2013-02-02 02:20:00,20.3,14.0,30.41,SSE,166,0.0,0.0,76,0.00,,CLR,0.00,VWS V14.01,2013-02-02 07:20:00,
2013-02-02 02:25:00,20.4,14.1,30.42,SSE,166,0.0,0.0,76,0.00,,CLR,0.00,VWS V14.01,2013-02-02 07:25:00,
2013-02-02 02:30:00,20.2,14.2,30.42,SSE,166,0.0,0.0,77,0.00,,CLR,0.00,VWS V14.01,2013-02-02 07:30:00,
2013-02-02 02:35:00,20.2,14.2,30.42,SSE,166,0.0,0.0,77,0.00,,CLR,0.00,VWS V14.01,2013-02-02 07:35:00,
2013-02-02 02:40:00,20.1,14.1,30.42,SSE,166,0.0,0.0,77,0.00,,CLR,0.00,VWS V14.01,2013-02-02 07:40:00,
2013-02-02 02:45:00,19.9,13.9,30.42,SSE,166,0.0,0.0,77,0.00,,CLR,0.00,VWS V14.01,2013-02-02 07:45:00,
2013-02-02 02:50:00,19.7,13.7,30.41,SSE,167,0.0,0.0,77,0.00,,CLR,0.00,VWS V14.01,2013-02-02 07:50:00,
2013-02-02 02:55:00,19.5,13.8,30.42,SSE,166,0.0,0.0,78,0.00,,CLR,0.00,VWS V14.01,2013-02-02 07:55:00,
2013-02-02 03:00:00,19.2,13.5,30.42,SSE,166,0.0,0.0,78,0.00,,CLR,0.00,VWS V14.01,2013-02-02 08:00:00,
2013-02-02 03:05:00,19.2,13.8,30.42,SSE,166,0.0,0.0,79,0.00,,CLR,0.00,VWS V14.01,2013-02-02 08:05:00,
2013-02-02 03:10:00,19.1,14.0,30.41,SSE,166,0.0,0.0,80,0.00,,CLR,0.00,VWS V14.01,2013-02-02 08:10:00,
2013-02-02 03:15:00,18.9,13.8,30.41,SSE,166,0.0,0.0,80,0.00,,CLR,0.00,VWS V14.01,2013-02-02 08:15:00,
2013-02-02 03:20:00,18.8,13.4,30.41,SSE,166,0.0,0.0,79,0.00,,CLR,0.00,VWS V14.01,2013-02-02 08:20:00,
2013-02-02 03:25:00,18.7,13.6,30.41,SSE,166,0.0,0.0,80,0.00,,CLR,0.00,VWS V14.01,2013-02-02 08:25:00,
2013-02-02 03:30:00,18.5,13.4,30.41,SSE,166,0.0,0.0,80,0.00,,CLR,0.00,VWS V14.01,2013-02-02 08:30:00,
2013-02-02 03:35:00,18.4,13.3,30.41,SSE,167,0.0,0.0,80,0.00,,CLR,0.00,VWS V14.01,2013-02-02 08:35:00,
2013-02-02 03:40:00,18.3,13.2,30.40,SSE,166,0.0,0.0,80,0.00,,CLR,0.00,VWS V14.01,2013-02-02 08:40:00,
2013-02-02 03:45:00,18.2,13.1,30.41,SSE,166,0.0,0.0,80,0.00,,CLR,0.00,VWS V14.01,2013-02-02 08:45:00,
2013-02-02 03:50:00,18.1,13.0,30.41,SSE,166,0.0,0.0,80,0.00,,CLR,0.00,VWS V14.01,2013-02-02 08:50:00,
2013-02-02 03:55:00,17.8,12.7,30.41,SSE,166,0.0,0.0,80,0.00,,CLR,0.00,VWS V14.01,2013-02-02 08:55:00,
2013-02-02 04:00:00,17.8,13.0,30.41,SSE,166,0.0,0.0,81,0.00,,CLR,0.00,VWS V14.01,2013-02-02 09:00:00,
2013-02-02 04:05:00,17.7,12.9,30.41,SSE,166,0.0,0.0,81,0.00,,CLR,0.00,VWS V14.01,2013-02-02 09:05:00,
2013-02-02 04:10:00,17.7,12.9,30.41,SSE,166,0.0,0.0,81,0.00,,CLR,0.00,VWS V14.01,2013-02-02 09:10:00,
2013-02-02 04:15:00,17.7,13.1,30.41,SSE,167,0.0,0.0,82,0.00,,CLR,0.00,VWS V14.01,2013-02-02 09:15:00,
2013-02-02 04:20:00,17.6,13.1,30.41,SSE,166,0.0,0.0,82,0.00,,CLR,0.00,VWS V14.01,2013-02-02 09:20:00,
2013-02-02 04:25:00,17.6,13.1,30.41,SSE,166,0.0,0.0,82,0.00,,CLR,0.00,VWS V14.01,2013-02-02 09:25:00,
2013-02-02 04:30:00,17.6,13.1,30.41,SSE,167,0.0,0.0,82,0.00,,CLR,0.00,VWS V14.01,2013-02-02 09:30:00,
2013-02-02 04:35:00,17.8,13.5,30.41,SSE,167,0.0,0.0,83,0.00,,CLR,0.00,VWS V14.01,2013-02-02 09:35:00,
2013-02-02 04:40:00,18.0,13.7,30.41,SSE,166,0.0,0.0,83,0.00,,CLR,0.00,VWS V14.01,2013-02-02 09:40:00,
2013-02-02 04:45:00,18.3,14.0,30.41,SSE,166,0.0,0.0,83,0.00,,CLR,0.00,VWS V14.01,2013-02-02 09:45:00,
2013-02-02 04:50:00,18.3,14.0,30.41,SSE,167,0.0,0.0,83,0.00,,CLR,0.00,VWS V14.01,2013-02-02 09:50:00,
2013-02-02 04:55:00,18.3,14.0,30.41,SSE,166,0.0,0.0,83,0.00,,CLR,0.00,VWS V14.01,2013-02-02 09:55:00,
2013-02-02 05:00:00,18.2,13.9,30.40,SSE,166,0.0,0.0,83,0.00,,CLR,0.00,VWS V14.01,2013-02-02 10:00:00,
2013-02-02 05:05:00,18.1,13.8,30.41,SSE,166,0.0,0.0,83,0.00,,CLR,0.00,VWS V14.01,2013-02-02 10:05:00,
2013-02-02 05:10:00,18.0,13.7,30.41,SSE,166,0.0,0.0,83,0.00,,CLR,0.00,VWS V14.01,2013-02-02 10:10:00,
2013-02-02 05:15:00,17.8,13.5,30.40,SSE,166,0.0,0.0,83,0.00,,CLR,0.00,VWS V14.01,2013-02-02 10:15:00,
2013-02-02 05:20:00,17.5,13.2,30.41,SSE,166,0.0,0.0,83,0.00,,CLR,0.00,VWS V14.01,2013-02-02 10:20:00,
2013-02-02 05:25:00,17.5,13.5,30.41,SSE,166,0.0,0.0,84,0.00,,CLR,0.00,VWS V14.01,2013-02-02 10:25:00,
2013-02-02 05:30:00,17.4,13.4,30.41,SSE,166,0.0,0.0,84,0.00,,CLR,0.00,VWS V14.01,2013-02-02 10:30:00,
2013-02-02 05:35:00,17.3,13.3,30.41,SSE,166,0.0,0.0,84,0.00,,CLR,0.00,VWS V14.01,2013-02-02 10:35:00,
2013-02-02 05:40:00,17.4,13.4,30.41,SSE,166,0.0,0.0,84,0.00,,CLR,0.00,VWS V14.01,2013-02-02 10:40:00,
2013-02-02 05:45:00,17.4,13.7,30.41,SSE,166,0.0,0.0,85,0.00,,CLR,0.00,VWS V14.01,2013-02-02 10:45:00,
2013-02-02 05:50:00,17.3,13.6,30.41,SSE,166,0.0,0.0,85,0.00,,CLR,0.00,VWS V14.01,2013-02-02 10:50:00,
2013-02-02 05:56:00,17.2,13.5,30.42,SSE,166,0.0,0.0,85,0.00,,CLR,0.00,VWS V14.01,2013-02-02 10:56:00,
2013-02-02 06:01:00,17.2,13.5,30.42,SSE,166,0.0,0.0,85,0.00,,CLR,0.00,VWS V14.01,2013-02-02 11:01:00,
2013-02-02 06:05:00,17.2,13.5,30.42,SSE,166,0.0,0.0,85,0.00,,CLR,0.00,VWS V14.01,2013-02-02 11:05:00,
2013-02-02 06:10:00,17.0,13.3,30.42,SSE,166,0.0,0.0,85,0.00,,CLR,0.00,VWS V14.01,2013-02-02 11:10:00,
2013-02-02 06:15:00,17.1,13.4,30.42,SSE,167,0.0,0.0,85,0.00,,CLR,0.00,VWS V14.01,2013-02-02 11:15:00,
2013-02-02 06:20:00,17.1,13.4,30.42,SSE,167,0.0,0.0,85,0.00,,CLR,0.00,VWS V14.01,2013-02-02 11:20:00,
2013-02-02 06:25:00,17.0,13.5,30.43,SSE,166,0.0,0.0,86,0.00,,CLR,0.00,VWS V14.01,2013-02-02 11:25:00,
2013-02-02 06:30:00,16.8,13.4,30.42,SSE,166,0.0,0.0,86,0.00,,CLR,0.00,VWS V14.01,2013-02-02 11:30:00,
2013-02-02 06:35:00,16.7,13.2,30.43,SSE,166,0.0,0.0,86,0.00,,CLR,0.00,VWS V14.01,2013-02-02 11:35:00,
2013-02-02 06:40:00,16.6,13.1,30.43,SSE,166,0.0,0.0,86,0.00,,CLR,0.00,VWS V14.01,2013-02-02 11:40:00,
2013-02-02 06:45:00,16.4,12.9,30.43,SSE,166,0.0,0.0,86,0.00,,CLR,0.00,VWS V14.01,2013-02-02 11:45:00,
2013-02-02 06:50:00,16.5,13.1,30.43,SSE,166,0.0,0.0,86,0.00,,CLR,0.00,VWS V14.01,2013-02-02 11:50:00,
2013-02-02 06:55:00,16.5,13.1,30.43,SSE,166,0.0,0.0,86,0.00,,CLR,0.00,VWS V14.01,2013-02-02 11:55:00,
2013-02-02 07:00:00,16.4,12.9,30.43,SSE,167,0.0,0.0,86,0.00,,CLR,0.00,VWS V14.01,2013-02-02 12:00:00,
2013-02-02 07:05:00,16.4,12.9,30.43,SSE,166,0.0,0.0,86,0.00,,CLR,0.00,VWS V14.01,2013-02-02 12:05:00,
2013-02-02 07:10:00,16.3,12.9,30.44,SSE,166,0.0,0.0,86,0.00,,CLR,0.00,VWS V14.01,2013-02-02 12:10:00,
2013-02-02 07:15:00,16.1,12.7,30.44,SSE,166,0.0,0.0,86,0.00,,CLR,0.00,VWS V14.01,2013-02-02 12:15:00,
2013-02-02 07:20:00,16.0,12.6,30.44,SSE,167,0.0,0.0,86,0.00,,CLR,0.00,VWS V14.01,2013-02-02 12:20:00,
2013-02-02 07:25:00,16.1,12.9,30.44,SSE,166,0.0,0.0,87,0.00,,CLR,0.00,VWS V14.01,2013-02-02 12:25:00,
2013-02-02 07:30:00,16.3,13.1,30.44,SSE,166,0.0,0.0,87,0.00,,CLR,0.00,VWS V14.01,2013-02-02 12:30:00,
2013-02-02 07:35:00,16.2,13.0,30.44,SSE,166,0.0,0.0,87,0.00,,CLR,0.00,VWS V14.01,2013-02-02 12:35:00,
2013-02-02 07:40:00,16.1,12.9,30.44,SSE,167,0.0,0.0,87,0.00,,CLR,0.00,VWS V14.01,2013-02-02 12:40:00,
2013-02-02 07:45:00,16.2,13.0,30.44,SSE,166,0.0,0.0,87,0.00,,CLR,0.00,VWS V14.01,2013-02-02 12:45:00,
2013-02-02 07:50:00,16.4,13.2,30.44,SSE,166,0.0,0.0,87,0.00,,CLR,0.00,VWS V14.01,2013-02-02 12:50:00,
2013-02-02 07:55:00,16.5,13.3,30.44,SSE,166,0.0,0.0,87,0.00,,CLR,0.00,VWS V14.01,2013-02-02 12:55:00,
2013-02-02 08:00:00,16.7,13.8,30.45,SSE,166,0.0,0.0,88,0.00,,CLR,0.00,VWS V14.01,2013-02-02 13:00:00,
2013-02-02 08:06:00,16.9,14.0,30.44,SSE,166,0.0,0.0,88,0.00,,CLR,0.00,VWS V14.01,2013-02-02 13:06:00,
2013-02-02 08:11:00,17.2,14.3,30.45,SSE,167,0.0,0.0,88,0.00,,CLR,0.00,VWS V14.01,2013-02-02 13:11:00,
2013-02-02 08:15:00,17.7,14.8,30.45,SSE,166,0.0,0.0,88,0.00,,CLR,0.00,VWS V14.01,2013-02-02 13:15:00,
2013-02-02 08:21:00,17.8,14.9,30.45,SSE,166,0.0,0.0,88,0.00,,CLR,0.00,VWS V14.01,2013-02-02 13:21:00,
2013-02-02 08:26:00,18.1,15.1,30.45,SSE,166,0.0,0.0,88,0.00,,CLR,0.00,VWS V14.01,2013-02-02 13:26:00,
2013-02-02 08:31:00,18.9,15.7,30.45,SSE,166,0.0,0.0,87,0.00,,CLR,0.00,VWS V14.01,2013-02-02 13:31:00,
2013-02-02 08:36:00,19.4,16.2,30.45,SSE,166,0.0,0.0,87,0.00,,CLR,0.00,VWS V14.01,2013-02-02 13:36:00,
2013-02-02 08:41:00,19.9,16.4,30.45,SSE,166,0.0,0.0,86,0.00,,CLR,0.00,VWS V14.01,2013-02-02 13:41:00,
2013-02-02 08:46:00,20.7,16.9,30.45,SSE,166,0.0,0.0,85,0.00,,CLR,0.00,VWS V14.01,2013-02-02 13:46:00,
2013-02-02 08:51:00,21.6,17.0,30.45,SSE,166,0.0,0.0,82,0.00,,CLR,0.00,VWS V14.01,2013-02-02 13:51:00,
2013-02-02 08:56:00,22.9,17.1,30.45,SE,142,0.0,1.0,78,0.00,,CLR,0.00,VWS V14.01,2013-02-02 13:56:00,
2013-02-02 09:01:00,24.1,16.4,30.45,SSE,166,1.0,5.0,72,0.00,,CLR,0.00,VWS V14.01,2013-02-02 14:01:00,
2013-02-02 09:06:00,25.1,16.0,30.45,ESE,117,0.0,1.0,68,0.00,,CLR,0.00,VWS V14.01,2013-02-02 14:06:00,
2013-02-02 09:11:00,25.7,15.2,30.44,WNW,297,0.0,1.0,64,0.00,,CLR,0.00,VWS V14.01,2013-02-02 14:11:00,
2013-02-02 09:16:00,26.2,16.1,30.44,SSE,166,0.0,1.0,65,0.00,,CLR,0.00,VWS V14.01,2013-02-02 14:16:00,
2013-02-02 09:21:00,26.7,15.1,30.43,SSW,201,1.0,2.0,61,0.00,,CLR,0.00,VWS V14.01,2013-02-02 14:21:00,
2013-02-02 09:26:00,27.3,14.9,30.44,SSE,153,3.0,4.0,59,0.00,,CLR,0.00,VWS V14.01,2013-02-02 14:26:00,
2013-02-02 09:31:00,27.5,14.3,30.43,SE,138,1.0,2.0,57,0.00,,CLR,0.00,VWS V14.01,2013-02-02 14:31:00,
2013-02-02 09:36:00,28.0,14.8,30.43,SSW,198,2.0,3.0,57,0.00,,CLR,0.00,VWS V14.01,2013-02-02 14:36:00,
2013-02-02 09:41:00,28.6,14.1,30.43,SW,214,2.0,2.0,54,0.00,,CLR,0.00,VWS V14.01,2013-02-02 14:41:00,
2013-02-02 09:46:00,29.3,15.1,30.43,WSW,252,2.0,2.0,55,0.00,,CLR,0.00,VWS V14.01,2013-02-02 14:46:00,
2013-02-02 09:51:00,29.8,13.9,30.43,SW,235,0.0,2.0,51,0.00,,CLR,0.00,VWS V14.01,2013-02-02 14:51:00,
2013-02-02 09:56:00,30.5,14.1,30.43,SSE,155,1.0,3.0,50,0.00,,CLR,0.00,VWS V14.01,2013-02-02 14:56:00,
2013-02-02 10:01:00,30.9,14.0,30.42,SW,219,0.0,3.0,49,0.00,,CLR,0.00,VWS V14.01,2013-02-02 15:01:00,
2013-02-02 10:06:00,31.4,14.0,30.42,SE,136,1.0,1.0,48,0.00,,CLR,0.00,VWS V14.01,2013-02-02 15:06:00,
2013-02-02 10:11:00,32.1,13.7,30.41,WSW,252,1.0,3.0,46,0.00,,CLR,0.00,VWS V14.01,2013-02-02 15:11:00,
2013-02-02 10:16:00,32.0,13.6,30.41,WSW,245,2.0,2.0,46,0.00,,CLR,0.00,VWS V14.01,2013-02-02 15:16:00,
2013-02-02 10:21:00,32.2,13.3,30.41,SE,142,1.0,3.0,45,0.00,,CLR,0.00,VWS V14.01,2013-02-02 15:21:00,
2013-02-02 10:26:00,32.6,12.6,30.41,ESE,119,4.0,4.0,43,0.00,,CLR,0.00,VWS V14.01,2013-02-02 15:26:00,
2013-02-02 10:31:00,32.8,11.7,30.40,West,267,1.0,2.0,41,0.00,,CLR,0.00,VWS V14.01,2013-02-02 15:31:00,
2013-02-02 10:36:00,32.8,11.1,30.40,WSW,243,2.0,3.0,40,0.00,,CLR,0.00,VWS V14.01,2013-02-02 15:36:00,
2013-02-02 10:41:00,32.9,11.8,30.39,WSW,242,2.0,4.0,41,0.00,,CLR,0.00,VWS V14.01,2013-02-02 15:41:00,
2013-02-02 10:46:00,33.0,11.9,30.39,SSW,211,1.0,3.0,41,0.00,,CLR,0.00,VWS V14.01,2013-02-02 15:46:00,
2013-02-02 10:51:00,33.2,12.1,30.39,SSW,205,2.0,3.0,41,0.00,,CLR,0.00,VWS V14.01,2013-02-02 15:51:00,
2013-02-02 10:56:00,33.3,12.2,30.39,WSW,238,3.0,3.0,41,0.00,,CLR,0.00,VWS V14.01,2013-02-02 15:56:00,
2013-02-02 11:01:00,33.6,12.4,30.38,SE,138,3.0,4.0,41,0.00,,CLR,0.00,VWS V14.01,2013-02-02 16:01:00,
2013-02-02 11:06:00,34.1,12.3,30.38,WSW,256,4.0,5.0,40,0.00,,CLR,0.00,VWS V14.01,2013-02-02 16:06:00,
2013-02-02 11:11:00,34.2,11.8,30.38,WNW,292,1.0,1.0,39,0.00,,CLR,0.00,VWS V14.01,2013-02-02 16:11:00,
2013-02-02 11:16:00,34.3,12.5,30.37,SSW,207,1.0,5.0,40,0.00,,CLR,0.00,VWS V14.01,2013-02-02 16:16:00,
2013-02-02 11:21:00,34.3,10.8,30.37,SSW,203,4.0,4.0,37,0.00,,CLR,0.00,VWS V14.01,2013-02-02 16:21:00,
2013-02-02 11:26:00,34.5,10.9,30.36,South,176,4.0,5.0,37,0.00,,CLR,0.00,VWS V14.01,2013-02-02 16:26:00,
2013-02-02 11:31:00,35.0,11.4,30.36,SW,226,2.0,3.0,37,0.00,,CLR,0.00,VWS V14.01,2013-02-02 16:31:00,
2013-02-02 11:36:00,35.3,11.6,30.35,SE,146,8.0,9.0,37,0.00,,CLR,0.00,VWS V14.01,2013-02-02 16:36:00,
2013-02-02 11:41:00,35.0,10.8,30.35,West,271,1.0,2.0,36,0.00,,CLR,0.00,VWS V14.01,2013-02-02 16:41:00,
2013-02-02 11:46:00,35.2,10.9,30.35,SSW,210,2.0,5.0,36,0.00,,CLR,0.00,VWS V14.01,2013-02-02 16:46:00,
2013-02-02 11:51:00,35.0,10.8,30.34,SSE,152,3.0,4.0,36,0.00,,CLR,0.00,VWS V14.01,2013-02-02 16:51:00,
2013-02-02 11:56:00,35.1,10.9,30.34,SW,228,0.0,1.0,36,0.00,,CLR,0.00,VWS V14.01,2013-02-02 16:56:00,
2013-02-02 12:01:00,35.4,11.1,30.34,SW,235,3.0,3.0,36,0.00,,CLR,0.00,VWS V14.01,2013-02-02 17:01:00,
2013-02-02 12:06:00,36.0,11.6,30.34,SSE,166,1.0,3.0,36,0.00,,CLR,0.00,VWS V14.01,2013-02-02 17:06:00,
2013-02-02 12:11:00,36.5,12.1,30.33,South,184,6.0,6.0,36,0.00,,CLR,0.00,VWS V14.01,2013-02-02 17:11:00,
2013-02-02 12:16:00,36.8,12.4,30.33,SSE,159,1.0,3.0,36,0.00,,CLR,0.00,VWS V14.01,2013-02-02 17:16:00,
2013-02-02 12:21:00,37.1,12.0,30.33,SSE,152,1.0,3.0,35,0.00,,CLR,0.00,VWS V14.01,2013-02-02 17:21:00,
2013-02-02 12:26:00,37.2,12.1,30.32,WNW,303,4.0,4.0,35,0.00,,CLR,0.00,VWS V14.01,2013-02-02 17:26:00,
2013-02-02 12:31:00,36.9,11.8,30.32,NE,55,1.0,3.0,35,0.00,,CLR,0.00,VWS V14.01,2013-02-02 17:31:00,
2013-02-02 12:36:00,37.4,13.5,30.31,South,188,1.0,2.0,37,0.00,,CLR,0.00,VWS V14.01,2013-02-02 17:36:00,
2013-02-02 12:41:00,37.9,13.4,30.31,SE,131,2.0,3.0,36,0.00,,CLR,0.00,VWS V14.01,2013-02-02 17:41:00,
2013-02-02 12:46:00,38.6,13.3,30.30,SE,139,3.0,4.0,35,0.00,,CLR,0.00,VWS V14.01,2013-02-02 17:46:00,
2013-02-02 12:51:00,39.1,13.8,30.30,SSW,212,2.0,2.0,35,0.00,,CLR,0.00,VWS V14.01,2013-02-02 17:51:00,
2013-02-02 12:56:00,39.3,12.6,30.29,North,5,2.0,3.0,33,0.00,,CLR,0.00,VWS V14.01,2013-02-02 17:56:00,
2013-02-02 13:01:00,39.1,13.1,30.28,SE,131,5.0,8.0,34,0.00,,CLR,0.00,VWS V14.01,2013-02-02 18:01:00,
2013-02-02 13:06:00,39.5,14.1,30.28,SE,141,4.0,4.0,35,0.00,,CLR,0.00,VWS V14.01,2013-02-02 18:06:00,
2013-02-02 13:11:00,40.0,13.9,30.27,SSE,167,1.0,3.0,34,0.00,,CLR,0.00,VWS V14.01,2013-02-02 18:11:00,
2013-02-02 13:16:00,40.1,13.3,30.27,East,88,2.0,2.0,33,0.00,,CLR,0.00,VWS V14.01,2013-02-02 18:16:00,
2013-02-02 13:21:00,40.1,13.3,30.27,SW,229,2.0,5.0,33,0.00,,CLR,0.00,VWS V14.01,2013-02-02 18:21:00,
2013-02-02 13:26:00,39.9,13.8,30.26,SE,135,6.0,6.0,34,0.00,,CLR,0.00,VWS V14.01,2013-02-02 18:26:00,
2013-02-02 13:31:00,40.0,13.9,30.26,West,280,1.0,2.0,34,0.00,,CLR,0.00,VWS V14.01,2013-02-02 18:31:00,
2013-02-02 13:36:00,40.1,13.3,30.25,West,264,2.0,4.0,33,0.00,,CLR,0.00,VWS V14.01,2013-02-02 18:36:00,
2013-02-02 13:41:00,40.1,13.3,30.25,SSW,205,4.0,6.0,33,0.00,,CLR,0.00,VWS V14.01,2013-02-02 18:41:00,
2013-02-02 13:46:00,39.8,13.7,30.25,WSW,256,3.0,6.0,34,0.00,,CLR,0.00,VWS V14.01,2013-02-02 18:46:00,
2013-02-02 13:51:00,39.5,14.1,30.25,SSW,212,2.0,3.0,35,0.00,,CLR,0.00,VWS V14.01,2013-02-02 18:51:00,
2013-02-02 13:56:00,39.1,13.8,30.24,SSE,147,1.0,2.0,35,0.00,,CLR,0.00,VWS V14.01,2013-02-02 18:56:00,
2013-02-02 14:01:00,39.0,14.3,30.24,South,170,0.0,3.0,36,0.00,,CLR,0.00,VWS V14.01,2013-02-02 19:01:00,
2013-02-02 14:06:00,39.0,14.3,30.24,SSE,149,3.0,3.0,36,0.00,,CLR,0.00,VWS V14.01,2013-02-02 19:06:00,
2013-02-02 14:11:00,38.9,14.2,30.23,SE,142,3.0,3.0,36,0.00,,CLR,0.00,VWS V14.01,2013-02-02 19:11:00,
2013-02-02 14:16:00,38.9,14.2,30.23,SSW,207,2.0,5.0,36,0.00,,CLR,0.00,VWS V14.01,2013-02-02 19:16:00,
2013-02-02 14:21:00,38.9,14.9,30.23,East,98,3.0,6.0,37,0.00,,CLR,0.00,VWS V14.01,2013-02-02 19:21:00,
2013-02-02 14:26:00,38.9,14.9,30.23,SW,232,3.0,6.0,37,0.00,,CLR,0.00,VWS V14.01,2013-02-02 19:26:00,
2013-02-02 14:31:00,38.9,14.2,30.23,SE,137,3.0,4.0,36,0.00,,CLR,0.00,VWS V14.01,2013-02-02 19:31:00,
2013-02-02 14:36:00,38.9,14.2,30.23,SSE,148,3.0,4.0,36,0.00,,CLR,0.00,VWS V14.01,2013-02-02 19:36:00,
2013-02-02 14:41:00,39.0,14.9,30.22,SE,127,1.0,3.0,37,0.00,,CLR,0.00,VWS V14.01,2013-02-02 19:41:00,
2013-02-02 14:46:00,38.9,14.2,30.22,ESE,115,7.0,7.0,36,0.00,,CLR,0.00,VWS V14.01,2013-02-02 19:46:00,
2013-02-02 14:51:00,39.2,15.1,30.21,SE,138,2.0,5.0,37,0.00,,CLR,0.00,VWS V14.01,2013-02-02 19:51:00,
2013-02-02 14:56:00,39.6,14.9,30.21,ESE,122,5.0,5.0,36,0.00,,CLR,0.00,VWS V14.01,2013-02-02 19:56:00,
2013-02-02 15:01:00,39.5,14.8,30.21,SW,228,2.0,5.0,36,0.00,,CLR,0.00,VWS V14.01,2013-02-02 20:01:00,
2013-02-02 15:06:00,39.7,15.6,30.21,ESE,114,6.0,6.0,37,0.00,,CLR,0.00,VWS V14.01,2013-02-02 20:06:00,
2013-02-02 15:11:00,39.9,15.1,30.21,SE,127,6.0,7.0,36,0.00,,CLR,0.00,VWS V14.01,2013-02-02 20:11:00,
2013-02-02 15:16:00,40.3,14.8,30.20,South,181,8.0,10.0,35,0.00,,CLR,0.00,VWS V14.01,2013-02-02 20:16:00,
2013-02-02 15:21:00,40.4,14.9,30.20,South,174,5.0,5.0,35,0.00,,CLR,0.00,VWS V14.01,2013-02-02 20:21:00,
2013-02-02 15:26:00,40.7,14.5,30.19,SSW,193,4.0,6.0,34,0.00,,CLR,0.00,VWS V14.01,2013-02-02 20:26:00,
2013-02-02 15:31:00,40.9,14.7,30.20,East,91,4.0,7.0,34,0.00,,CLR,0.00,VWS V14.01,2013-02-02 20:31:00,
2013-02-02 15:36:00,40.9,14.7,30.19,SE,136,9.0,10.0,34,0.00,,CLR,0.00,VWS V14.01,2013-02-02 20:36:00,
2013-02-02 15:41:00,40.6,14.4,30.19,SSE,167,3.0,5.0,34,0.00,,CLR,0.00,VWS V14.01,2013-02-02 20:41:00,
2013-02-02 15:46:00,40.8,14.6,30.19,South,191,2.0,4.0,34,0.00,,CLR,0.00,VWS V14.01,2013-02-02 20:46:00,
2013-02-02 15:51:00,40.6,14.4,30.19,SSE,148,3.0,7.0,34,0.00,,CLR,0.00,VWS V14.01,2013-02-02 20:51:00,
2013-02-02 15:57:00,40.2,14.1,30.19,SSW,205,2.0,6.0,34,0.00,,CLR,0.00,VWS V14.01,2013-02-02 20:57:00,
2013-02-02 16:02:00,40.1,14.7,30.19,WSW,249,4.0,4.0,35,0.00,,CLR,0.00,VWS V14.01,2013-02-02 21:02:00,
2013-02-02 16:07:00,40.1,14.7,30.19,SE,125,4.0,6.0,35,0.00,,CLR,0.00,VWS V14.01,2013-02-02 21:07:00,
2013-02-02 16:12:00,40.0,14.6,30.18,SE,130,4.0,8.0,35,0.00,,CLR,0.00,VWS V14.01,2013-02-02 21:12:00,
2013-02-02 16:17:00,40.0,14.6,30.18,SE,135,1.0,3.0,35,0.00,,CLR,0.00,VWS V14.01,2013-02-02 21:17:00,
2013-02-02 16:22:00,40.0,14.6,30.18,SSE,168,2.0,7.0,35,0.00,,CLR,0.00,VWS V14.01,2013-02-02 21:22:00,
2013-02-02 16:27:00,40.0,14.6,30.18,ESE,117,2.0,6.0,35,0.00,,CLR,0.00,VWS V14.01,2013-02-02 21:27:00,
2013-02-02 16:32:00,40.0,14.6,30.17,SSE,162,5.0,5.0,35,0.00,,CLR,0.00,VWS V14.01,2013-02-02 21:32:00,
2013-02-02 16:37:00,40.4,14.9,30.17,SW,224,1.0,5.0,35,0.00,,CLR,0.00,VWS V14.01,2013-02-02 21:37:00,
2013-02-02 16:42:00,40.7,15.2,30.17,SW,221,1.0,3.0,35,0.00,,CLR,0.00,VWS V14.01,2013-02-02 21:42:00,
2013-02-02 16:47:00,40.6,15.1,30.17,SSE,156,2.0,4.0,35,0.00,,CLR,0.00,VWS V14.01,2013-02-02 21:47:00,
2013-02-02 16:52:00,40.5,15.7,30.17,SE,145,2.0,3.0,36,0.00,,CLR,0.00,VWS V14.01,2013-02-02 21:52:00,
2013-02-02 16:57:00,40.3,15.5,30.17,SSW,211,3.0,4.0,36,0.00,,CLR,0.00,VWS V14.01,2013-02-02 21:57:00,
2013-02-02 17:02:00,40.1,15.9,30.17,SSE,150,2.0,3.0,37,0.00,,CLR,0.00,VWS V14.01,2013-02-02 22:02:00,
2013-02-02 17:07:00,39.8,15.7,30.17,SSW,193,1.0,1.0,37,0.00,,CLR,0.00,VWS V14.01,2013-02-02 22:07:00,
2013-02-02 17:12:00,39.7,15.6,30.17,SE,139,1.0,2.0,37,0.00,,CLR,0.00,VWS V14.01,2013-02-02 22:12:00,
2013-02-02 17:17:00,39.6,15.5,30.16,SSW,200,2.0,2.0,37,0.00,,CLR,0.00,VWS V14.01,2013-02-02 22:17:00,
2013-02-02 17:22:00,39.5,16.6,30.16,SE,142,0.0,1.0,39,0.00,,CLR,0.00,VWS V14.01,2013-02-02 22:22:00,
2013-02-02 17:27:00,39.2,16.9,30.16,SE,142,0.0,1.0,40,0.00,,CLR,0.00,VWS V14.01,2013-02-02 22:27:00,
2013-02-02 17:32:00,38.8,16.0,30.16,SE,142,0.0,0.0,39,0.00,,CLR,0.00,VWS V14.01,2013-02-02 22:32:00,
2013-02-02 17:37:00,38.4,16.2,30.16,SE,142,0.0,0.0,40,0.00,,CLR,0.00,VWS V14.01,2013-02-02 22:37:00,
2013-02-02 17:42:00,38.1,17.0,30.15,SE,142,0.0,0.0,42,0.00,,CLR,0.00,VWS V14.01,2013-02-02 22:42:00,
2013-02-02 17:47:00,37.8,16.8,30.15,SE,141,0.0,1.0,42,0.00,,CLR,0.00,VWS V14.01,2013-02-02 22:47:00,
2013-02-02 17:52:00,37.7,16.7,30.14,SE,142,0.0,0.0,42,0.00,,CLR,0.00,VWS V14.01,2013-02-02 22:52:00,
2013-02-02 17:57:00,37.7,19.8,30.14,SE,142,0.0,0.0,48,0.00,,CLR,0.00,VWS V14.01,2013-02-02 22:57:00,
2013-02-02 18:02:00,37.4,20.9,30.14,SE,142,0.0,0.0,51,0.00,,CLR,0.00,VWS V14.01,2013-02-02 23:02:00,
2013-02-02 18:07:00,37.2,21.2,30.14,SE,142,0.0,0.0,52,0.00,,CLR,0.00,VWS V14.01,2013-02-02 23:07:00,
2013-02-02 18:12:00,37.0,21.0,30.13,SE,142,0.0,0.0,52,0.00,,CLR,0.00,VWS V14.01,2013-02-02 23:12:00,
2013-02-02 18:17:00,36.8,20.4,30.14,SE,142,0.0,0.0,51,0.00,,CLR,0.00,VWS V14.01,2013-02-02 23:17:00,
2013-02-02 18:22:00,36.6,21.1,30.14,SE,142,0.0,0.0,53,0.00,,CLR,0.00,VWS V14.01,2013-02-02 23:22:00,
2013-02-02 18:27:00,36.4,19.5,30.13,ESE,120,0.0,1.0,50,0.00,,CLR,0.00,VWS V14.01,2013-02-02 23:27:00,
2013-02-02 18:32:00,36.4,20.0,30.12,ESE,120,0.0,0.0,51,0.00,,CLR,0.00,VWS V14.01,2013-02-02 23:32:00,
2013-02-02 18:37:00,36.3,20.4,30.12,ESE,120,0.0,0.0,52,0.00,,CLR,0.00,VWS V14.01,2013-02-02 23:37:00,
2013-02-02 18:42:00,36.1,20.2,30.12,ESE,120,0.0,0.0,52,0.00,,CLR,0.00,VWS V14.01,2013-02-02 23:42:00,
2013-02-02 18:47:00,35.9,20.5,30.12,ESE,120,0.0,0.0,53,0.00,,CLR,0.00,VWS V14.01,2013-02-02 23:47:00,
2013-02-02 18:52:00,35.5,21.8,30.13,ESE,120,0.0,0.0,57,0.00,,CLR,0.00,VWS V14.01,2013-02-02 23:52:00,
2013-02-02 18:57:00,35.2,22.3,30.13,ESE,120,0.0,0.0,59,0.00,,CLR,0.00,VWS V14.01,2013-02-02 23:57:00,
2013-02-02 19:02:00,34.8,22.7,30.13,ESE,120,0.0,0.0,61,0.00,,CLR,0.00,VWS V14.01,2013-02-03 00:02:00,
2013-02-02 19:07:00,34.3,21.9,30.12,ESE,120,0.0,1.0,60,0.00,,CLR,0.00,VWS V14.01,2013-02-03 00:07:00,
2013-02-02 19:12:00,34.2,21.0,30.13,ESE,120,0.0,0.0,58,0.00,,CLR,0.00,VWS V14.01,2013-02-03 00:12:00,
2013-02-02 19:17:00,34.0,21.6,30.12,ESE,120,0.0,0.0,60,0.00,,CLR,0.00,VWS V14.01,2013-02-03 00:17:00,
2013-02-02 19:22:00,33.8,21.0,30.13,ESE,120,0.0,0.0,59,0.00,,CLR,0.00,VWS V14.01,2013-02-03 00:22:00,
2013-02-02 19:27:00,33.6,22.0,30.13,ESE,120,0.0,0.0,62,0.00,,CLR,0.00,VWS V14.01,2013-02-03 00:27:00,
2013-02-02 19:32:00,33.4,22.2,30.13,ESE,120,0.0,0.0,63,0.00,,CLR,0.00,VWS V14.01,2013-02-03 00:32:00,
2013-02-02 19:37:00,33.2,22.0,30.13,ESE,120,0.0,0.0,63,0.00,,CLR,0.00,VWS V14.01,2013-02-03 00:37:00,
2013-02-02 19:42:00,33.2,22.7,30.13,ESE,120,0.0,1.0,65,0.00,,CLR,0.00,VWS V14.01,2013-02-03 00:42:00,
2013-02-02 19:47:00,33.2,22.4,30.13,ESE,120,0.0,0.0,64,0.00,,CLR,0.00,VWS V14.01,2013-02-03 00:47:00,
2013-02-02 19:52:00,33.2,22.7,30.13,ESE,120,0.0,0.0,65,0.00,,CLR,0.00,VWS V14.01,2013-02-03 00:52:00,
2013-02-02 19:57:00,33.2,22.7,30.14,ESE,120,0.0,0.0,65,0.00,,CLR,0.00,VWS V14.01,2013-02-03 00:57:00,
2013-02-02 20:02:00,33.3,22.8,30.13,ESE,120,0.0,1.0,65,0.00,,CLR,0.00,VWS V14.01,2013-02-03 01:02:00,
2013-02-02 20:07:00,33.5,23.0,30.13,ESE,120,0.0,0.0,65,0.00,,CLR,0.00,VWS V14.01,2013-02-03 01:07:00,
2013-02-02 20:12:00,33.5,23.4,30.14,ESE,120,0.0,0.0,66,0.00,,CLR,0.00,VWS V14.01,2013-02-03 01:12:00,
2013-02-02 20:17:00,33.6,22.7,30.14,ESE,120,0.0,1.0,64,0.00,,CLR,0.00,VWS V14.01,2013-02-03 01:17:00,
2013-02-02 20:22:00,33.7,23.2,30.14,ESE,120,0.0,0.0,65,0.00,,CLR,0.00,VWS V14.01,2013-02-03 01:22:00,
2013-02-02 20:27:00,33.9,23.0,30.14,ESE,115,0.0,0.0,64,0.00,,CLR,0.00,VWS V14.01,2013-02-03 01:27:00,
2013-02-02 20:32:00,34.1,23.2,30.14,ESE,115,0.0,0.0,64,0.00,,CLR,0.00,VWS V14.01,2013-02-03 01:32:00,
2013-02-02 20:37:00,34.2,23.3,30.14,ESE,115,0.0,0.0,64,0.00,,CLR,0.00,VWS V14.01,2013-02-03 01:37:00,
2013-02-02 20:42:00,34.3,23.4,30.14,ESE,116,0.0,0.0,64,0.00,,CLR,0.00,VWS V14.01,2013-02-03 01:42:00,
2013-02-02 20:47:00,34.5,24.3,30.14,ESE,115,0.0,1.0,66,0.00,,CLR,0.00,VWS V14.01,2013-02-03 01:47:00,
2013-02-02 20:52:00,34.9,25.8,30.14,ESE,115,0.0,1.0,69,0.00,,CLR,0.00,VWS V14.01,2013-02-03 01:52:00,
2013-02-02 20:57:00,35.3,26.9,30.13,ESE,115,0.0,0.0,71,0.00,,CLR,0.00,VWS V14.01,2013-02-03 01:57:00,
2013-02-02 21:02:00,35.4,28.0,30.13,SE,142,0.0,1.0,74,0.00,,CLR,0.00,VWS V14.01,2013-02-03 02:02:00,
2013-02-02 21:07:00,35.6,29.1,30.13,SE,142,0.0,0.0,77,0.00,,CLR,0.00,VWS V14.01,2013-02-03 02:07:00,
2013-02-02 21:12:00,35.8,30.2,30.14,NW,325,2.0,2.0,80,0.00,,CLR,0.00,VWS V14.01,2013-02-03 02:12:00,
2013-02-02 21:17:00,36.0,31.0,30.14,WSW,257,1.0,4.0,82,0.00,,CLR,0.00,VWS V14.01,2013-02-03 02:17:00,
2013-02-02 21:22:00,36.2,31.8,30.14,West,280,1.0,5.0,84,0.00,,CLR,0.00,VWS V14.01,2013-02-03 02:22:00,
2013-02-02 21:27:00,36.4,32.0,30.14,WNW,297,1.0,2.0,84,0.00,,CLR,0.00,VWS V14.01,2013-02-03 02:27:00,
2013-02-02 21:32:00,36.4,32.3,30.15,WSW,247,0.0,1.0,85,0.00,,CLR,0.00,VWS V14.01,2013-02-03 02:32:00,
2013-02-02 21:37:00,36.4,32.3,30.15,SW,218,1.0,2.0,85,0.00,,CLR,0.00,VWS V14.01,2013-02-03 02:37:00,
2013-02-02 21:42:00,36.3,32.2,30.15,SSW,197,0.0,1.0,85,0.00,,CLR,0.00,VWS V14.01,2013-02-03 02:42:00,
2013-02-02 21:47:00,36.3,32.5,30.15,South,172,2.0,2.0,86,0.00,,CLR,0.00,VWS V14.01,2013-02-03 02:47:00,
2013-02-02 21:52:00,36.2,32.4,30.14,West,264,1.0,2.0,86,0.00,,CLR,0.00,VWS V14.01,2013-02-03 02:52:00,
2013-02-02 21:57:00,36.2,32.4,30.14,WNW,289,0.0,1.0,86,0.00,,CLR,0.00,VWS V14.01,2013-02-03 02:57:00,
2013-02-02 22:02:00,36.1,32.6,30.13,SW,224,2.0,2.0,87,0.00,,CLR,0.00,VWS V14.01,2013-02-03 03:02:00,
2013-02-02 22:07:00,36.1,32.6,30.13,East,98,0.0,0.0,87,0.00,,CLR,0.00,VWS V14.01,2013-02-03 03:07:00,
2013-02-02 22:12:00,36.0,32.5,30.13,East,99,0.0,0.0,87,0.00,,CLR,0.00,VWS V14.01,2013-02-03 03:12:00,
2013-02-02 22:17:00,35.9,32.4,30.13,East,96,0.0,0.0,87,0.00,,CLR,0.00,VWS V14.01,2013-02-03 03:17:00,
2013-02-02 22:22:00,35.8,32.6,30.13,East,96,0.0,0.0,88,0.01,,CLR,0.01,VWS V14.01,2013-02-03 03:22:00,
2013-02-02 22:27:00,35.8,32.6,30.13,SW,215,1.0,1.0,88,0.01,,CLR,0.01,VWS V14.01,2013-02-03 03:27:00,
2013-02-02 22:32:00,35.8,32.6,30.13,WSW,243,0.0,0.0,88,0.01,,CLR,0.01,VWS V14.01,2013-02-03 03:32:00,
2013-02-02 22:37:00,35.8,32.6,30.12,WSW,243,0.0,0.0,88,0.01,,CLR,0.01,VWS V14.01,2013-02-03 03:37:00,
2013-02-02 22:42:00,35.8,32.6,30.12,WSW,243,0.0,0.0,88,0.01,,CLR,0.01,VWS V14.01,2013-02-03 03:42:00,
2013-02-02 22:47:00,35.8,32.6,30.12,SSW,195,0.0,1.0,88,0.01,,CLR,0.01,VWS V14.01,2013-02-03 03:47:00,
2013-02-02 22:52:00,35.8,32.6,30.12,WSW,248,1.0,2.0,88,0.01,,CLR,0.01,VWS V14.01,2013-02-03 03:52:00,
2013-02-02 22:57:00,35.9,32.7,30.11,South,177,0.0,0.0,88,0.01,,CLR,0.01,VWS V14.01,2013-02-03 03:57:00,
2013-02-02 23:02:00,35.9,32.7,30.11,SW,219,0.0,0.0,88,0.01,,CLR,0.01,VWS V14.01,2013-02-03 04:02:00,
2013-02-02 23:07:00,35.7,32.5,30.11,SW,219,0.0,0.0,88,0.01,,CLR,0.01,VWS V14.01,2013-02-03 04:07:00,
2013-02-02 23:12:00,35.6,32.4,30.11,SW,219,0.0,0.0,88,0.01,,CLR,0.01,VWS V14.01,2013-02-03 04:12:00,
2013-02-02 23:17:00,35.5,32.3,30.11,SW,219,0.0,0.0,88,0.01,,CLR,0.01,VWS V14.01,2013-02-03 04:17:00,
2013-02-02 23:22:00,35.4,32.2,30.11,SW,219,0.0,0.0,88,0.01,,CLR,0.01,VWS V14.01,2013-02-03 04:22:00,
2013-02-02 23:27:00,35.4,32.5,30.11,SW,219,0.0,0.0,89,0.00,,CLR,0.01,VWS V14.01,2013-02-03 04:27:00,
2013-02-02 23:32:00,35.3,32.4,30.11,SW,219,0.0,0.0,89,0.00,,CLR,0.01,VWS V14.01,2013-02-03 04:32:00,
2013-02-02 23:37:00,35.2,32.3,30.10,SW,219,0.0,0.0,89,0.00,,CLR,0.01,VWS V14.01,2013-02-03 04:37:00,
2013-02-02 23:42:00,35.1,32.2,30.10,SW,219,0.0,0.0,89,0.00,,CLR,0.01,VWS V14.01,2013-02-03 04:42:00,
2013-02-02 23:47:00,35.1,32.2,30.10,SW,219,0.0,0.0,89,0.00,,CLR,0.01,VWS V14.01,2013-02-03 04:47:00,
2013-02-02 23:52:00,35.1,32.5,30.10,SW,219,0.0,0.0,90,0.00,,CLR,0.01,VWS V14.01,2013-02-03 04:52:00,
2013-02-02 23:57:00,35.1,32.5,30.09,SW,220,0.0,0.0,90,0.00,,CLR,0.01,VWS V14.01,2013-02-03 04:57:00,